This demonstration page uses our WeatherBlox Daily Observations layout. Learn more.

Left ArrowRight Arrow

36.17497, -115.13722

Hourly Observations for April 26, 2020

Temp ( °F °C ) Dew Point ( °F °C ) Humidity (%) Winds ( mph kmh ) Pressure ( in mb ) Visibility ( mi km ) Precip ( " mm )
12:53 am 00:53 Clear 75 23.9 38 3.3 26 26 NNW 3 6 29.91 1013 10 16 N/A
1:53 am 01:53 Clear 74 23.3 37 2.8 26 26 NNW 6 9 29.89 1012 10 16 N/A
2:53 am 02:53 Clear 73 22.8 37 2.8 27 27 N N/A 29.88 1012 10 16 N/A
3:53 am 03:53 Clear 71 21.7 38 3.3 30 30 WNW 3 6 29.88 1012 10 16 N/A
4:53 am 04:53 Clear 71 21.7 38 3.3 30 30 N 5 7 29.88 1012 10 16 N/A
5:53 am 05:53 Sunny 73 22.8 38 3.3 28 28 S 5 7 29.88 1012 10 16 N/A
6:53 am 06:53 Sunny 74 23.3 43 6.1 33 33 ESE 7 11 29.89 1012 10 16 N/A
7:53 am 07:53 Sunny 77 25 44 6.7 31 31 N N/A 29.91 1013 10 16 N/A
8:53 am 08:53 Sunny 78 25.6 43 6.1 29 29 N 6 9 29.92 1013 10 16 N/A
9:53 am 09:53 Sunny 81 27.2 42 5.6 25 25 N 6 9 29.93 1013 10 16 N/A
10:53 am 10:53 Sunny 83 28.3 42 5.6 24 24 N 5 7 29.93 1014 10 16 N/A
11:53 am 11:53 Sunny 84 28.9 40 4.4 21 21 N N/A 29.92 1013 10 16 N/A
12:53 pm 12:53 Sunny 88 31.1 36 2.2 16 16 WSW 6 9 29.90 1013 10 16 N/A
1:53 pm 13:53 Sunny 91 32.8 34 1.1 13 13 undefined N/A 29.88 1012 10 16 N/A
2:53 pm 14:53 Sunny 92 33.3 34 1.1 13 13 N N/A 29.85 1011 10 16 N/A
3:53 pm 15:53 Sunny 93 33.9 31 -0.6 11 11 SSW 8 13 29.83 1010 10 16 N/A
4:53 pm 16:53 Sunny 93 33.9 26 -3.3 9 9 SW 9 15 29.82 1010 10 16 N/A
5:53 pm 17:53 Sunny 92 33.3 25 -3.9 9 9 SW 14 22 29.82 1010 10 16 N/A
6:53 pm 18:53 Sunny 90 32.2 26 -3.3 10 10 WSW 12 19 29.82 1010 10 16 N/A
7:53 pm 19:53 Clear 88 31.1 25 -3.9 10 10 S 10 17 29.82 1010 10 16 N/A
8:53 pm 20:53 Clear 86 30 29 -1.7 13 13 WSW 6 9 29.83 1010 10 16 N/A
9:53 pm 21:53 Clear 82 27.8 31 -0.6 16 16 ESE 5 7 29.85 1011 10 16 N/A
10:53 pm 22:53 Clear 82 27.8 31 -0.6 16 16 W 6 9 29.84 1011 10 16 N/A
11:53 pm 23:53 Clear 77 25 32 undefined 19 19 WNW 7 11 29.85 1011 10 16 N/A

Powered by AerisWeather